Location: Most
(50.5330°N, 13.6500°E)
Time: 12:20:54
(UTC+01:00)

N. Korean satellite - Pass Details

Date: 31 October 2021
Orbit: 446 x 495 km, 97.3° (Epoch: 06 December)

Event Time Altitude Azimuth Distance (km) Brightness Sun altitude
Rises 04:47:30 0° 22° (NNE) 2,590 10.6 -20.6°
Reaches altitude 10° 04:49:49 10° 34° (NE) 1,696 9.8 -20.3°
Maximum altitude 04:53:00 28° 95° (E) 951 8.8 -19.8°
Drops below altitude 10° 04:56:07 10° 156° (SSE) 1,662 9.5 -19.3°
Sets 04:58:22 0° 168° (SSE) 2,526 10.4 -18.9°
